W7OG-10 Weather Reports


time (UTC)temp
C
wind
direction
speed
KPH
gust
KPH
rain 1hr
cm
rain 24hr
cm
rain mn
cm
humidity
%
barometer
mb
20260504212912 31 0.0 0.0 0.00 0.00 0.00 64 1008.1
20260504211809 31 181 1.6 8.0 0.00 0.00 0.00 63 1008.0
20260504210809 31 181 0.0 8.0 0.00 0.00 0.00 61 1008.0
20260504205809 31 181 1.6 9.7 0.00 0.00 0.00 58 1008.1
20260504204809 31 181 1.6 8.0 0.00 0.00 0.00 59 1008.0
20260504203810 31 181 1.6 8.0 0.00 0.00 0.00 59 1008.0
20260504202810 31 181 0.0 6.4 0.00 0.00 0.00 60 1007.9
20260504201811 31 181 1.6 11.3 0.00 0.00 0.00 60 1007.9
20260504195810 31 181 0.0 6.4 0.00 0.00 0.00 60 1007.9
20260504194810 31 181 1.6 9.7 0.00 0.00 0.00 61 1007.9
20260504193810 30 0.0 0.0 0.00 0.00 0.00 60 1008.0
20260504192810 31 181 3.2 12.9 0.00 0.00 0.00 61 1008.0
20260504191809 30 181 1.6 8.0 0.00 0.00 0.00 63 1008.0
20260504190810 30 181 1.6 12.9 0.00 0.00 0.00 63 1007.9
20260504185809 30 181 0.0 6.4 0.00 0.00 0.00 65 1007.9
20260504184810 30 181 1.6 9.7 0.00 0.00 0.00 66 1007.9
20260504183829 30 181 3.2 12.9 0.00 0.00 0.00 68 1008.0
20260504182810 29 181 1.6 12.9 0.00 0.00 0.00 69 1008.0
20260504181810 29 181 1.6 11.3 0.00 0.00 0.00 70 1008.1
20260504180810 29 181 1.6 8.0 0.00 0.00 0.00 75 1008.1
20260504175810 28 181 0.0 4.8 0.00 0.00 0.00 79 1008.0
20260504174830 28 181 1.6 8.0 0.00 0.00 0.00 81 1008.0
20260504173811 28 0.0 0.0 0.00 0.00 0.00 81 1007.9
20260504172811 28 0.0 0.0 0.00 0.00 0.00 83 1007.7
20260504171810 28 0.0 0.0 0.00 0.00 0.00 85 1007.6
20260504170811 28 181 3.2 8.0 0.00 0.00 0.00 85 1007.5
20260504150811 26 0.0 0.0 0.00 0.00 0.00 87 1008.6
20260504140811 25 0.0 0.0 0.00 0.00 0.00 91 1008.7
20260504130811 23 0.0 0.0 0.00 0.00 0.00 89 1008.3